SCP
1 1 1 1 1 1 1 1 1 1 1 1 1 1 1 1 1 1 1 1 1 1 1 1 1 1 1 0 0 0 0 0 0 0 0 0 0 0 0 0 0 0 0
1 1 1 1 1 1 1 1 1 1 1 1 1 1 1 1 1 1 1 1 1 1 1 1 1 1 1 1 1 1 1 1 1 1 0 0 0 0 0 0 0 0 0
1 1 1 1 1 1 1 1 0 1 1 1 0 1 1 1 1 1 1 1 1 1 1 1 1 1 1 1 1 1 1 1 1 1 1 0 0 0 0 0 0 0 0
1 1 1 1 1 1 0 0 1 1 1 0 0 1 1 1 1 1 1 1 1 1 1 1 1 1 1 1 1 1 1 1 1 1 1 1 1 0 0 0 0 0 0
1 1 1 1 0 0 0 0 1 1 1 0 0 0 1 1 1 1 1 1 1 1 1 1 1 1 1 1 1 1 1 1 1 1 1 1 1 1 0 0 0 0 0
0 0 0 0 0 0 0 0 0 0 0 0 0 0 0 0 1 1 1 1 1 1 1 1 1 1 1 1 1 1 1 1 1 1 1 1 1 1 1 1 0 0 0
0 0 0 0 0 0 0 0 0 0 0 0 0 0 0 0 0 1 0 0 0 0 0 0 0 0 1 1 1 1 1 1 1 1 1 1 1 1 1 1 1 0 0
0 0 0 0 0 0 0 0 0 0 0 0 0 0 0 0 0 0 0 0 0 0 0 0 0 0 0 1 1 1 1 1 1 1 1 1 1 1 1 1 1 0 0
0 0 0 0 0 0 0 0 0 0 0 0 0 0 0 0 0 0 0 0 0 0 0 0 0 0 0 1 1 1 1 1 1 1 1 1 1 1 1 1 1 1 1
0 0 0 0 0 0 0 0 0 0 0 0 0 0 0 0 0 0 0 0 0 0 0 0 0 0 0 1 1 1 1 1 1 1 1 1 1 1 1 1 1 1 1
0 0 0 0 0 0 0 0 0 0 0 0 0 0 0 0 0 0 0 0 0 0 0 0 0 0 0 1 1 1 0 0 0 0 1 1 1 1 1 1 1 1 1
0 0 0 0 0 0 0 0 0 0 0 0 0 0 0 0 0 0 0 0 0 0 0 0 0 0 0 1 1 1 0 0 0 0 0 0 1 1 1 1 1 1 1
0 0 0 0 0 0 0 0 0 0 0 0 0 0 0 0 0 0 0 0 0 0 1 1 0 0 0 1 1 1 0 0 0 0 0 0 0 0 0 1 1 1 1
1 1 1 1 0 0 0 0 0 0 0 0 0 0 0 0 0 0 0 0 0 0 0 1 0 0 0 1 0 0 0 0 0 0 0 0 0 0 0 0 0 0 1
1 1 1 1 1 0 0 0 0 0 0 0 0 0 0 0 0 0 0 0 0 0 0 0 0 0 1 0 0 0 0 0 0 0 0 0 0 0 0 0 0 0 0
1 1 1 1 1 1 1 0 0 0 1 1 1 1 1 1 0 0 1 1 1 0 0 0 0 0 1 0 0 0 0 0 0 0 0 0 0 0 0 0 0 0 0
2 2 1 1 1 1 1 1 1 1 1 1 1 2 2 2 2 1 1 1 1 1 1 1 1 1 1 1 1 1 0 0 0 0 0 0 0 0 0 0 0 0 0
2 2 2 1 1 1 1 1 1 1 1 2 2 2 3 3 3 3 2 2 2 2 1 1 1 1 1 1 1 1 0 0 0 0 0 0 0 0 0 0 0 0 0
3 3 2 2 1 1 1 1 1 2 2 2 2 3 3 4 4 4 3 3 3 2 2 1 1 1 1 2 1 1 1 0 0 0 0 0 0 0 0 0 0 0 0
3 3 3 3 2 2 2 2 2 2 2 2 3 3 3 4 4 4 4 4 3 2 2 2 1 1 2 2 2 1 1 1 0 0 0 0 0 0 0 0 0 0 0
4 4 3 3 2 2 2 2 2 3 3 3 3 3 3 3 3 3 3 3 3 3 2 2 2 1 2 2 2 1 1 1 1 0 0 0 0 0 0 0 0 0 0
4 4 4 3 3 2 2 1 2 3 3 4 4 4 3 3 2 2 2 2 2 2 2 2 2 2 2 2 2 2 1 1 1 1 1 1 0 0 0 0 0 0 0
4 4 4 4 3 3 2 1 1 2 3 3 4 4 4 3 3 2 2 1 1 1 1 2 2 2 2 3 3 2 2 2 1 1 1 1 1 1 0 0 0 0 0
5 5 5 5 4 3 2 1 1 1 2 3 4 4 4 4 3 3 2 2 2 1 1 1 1 1 1 2 2 3 2 2 2 1 1 1 0 1 1 0 0 0 0
6 5 5 5 5 4 2 1 0 1 2 2 3 3 3 3 2 2 2 2 2 2 1 1 0 0 0 1 1 2 2 2 1 1 1 1 1 1 1 1 1 0 0
5 5 5 5 4 4 2 1 0 1 2 2 2 2 2 2 1 1 1 1 2 2 1 1 1 0 0 0 0 1 1 1 1 1 1 1 1 1 1 1 1 1 0
Wind_Speed
3 3 1 1 1 1 1 1 1 1 0 1 2 1 2 2 2 2 4 10 11 10 10 10 10 10 10 9 9 8 8 7 8 7 7 7 7 7 7 7 6 6 6
3 2 1 0 1 1 2 1 1 1 1 0 1 1 1 1 2 2 3 6 8 9 10 10 11 11 11 10 10 10 9 8 8 8 8 7 7 7 7 7 7 7 6
3 1 0 1 1 1 1 1 1 1 2 2 1 1 1 1 1 1 2 3 4 7 9 10 11 11 11 11 11 10 10 9 9 9 9 8 8 8 7 7 7 7 7
2 2 1 3 2 1 1 1 0 0 1 1 1 1 1 1 1 1 1 2 3 4 7 10 11 11 11 11 11 11 10 10 9 9 10 9 9 9 8 8 8 8 8
2 2 3 3 3 1 1 2 3 2 1 1 1 2 1 1 1 2 1 2 3 4 4 8 11 11 12 12 11 11 11 10 10 10 10 11 11 10 10 9 9 9 9
3 3 2 2 3 2 3 3 2 1 1 1 2 1 1 1 1 1 1 1 3 4 4 5 5 7 12 12 12 12 12 11 11 11 11 12 11 11 11 11 11 10 10
3 3 3 2 2 3 3 2 2 1 2 0 1 1 2 3 3 2 1 0 1 2 3 5 4 3 5 11 11 12 13 13 12 12 12 12 12 12 12 12 12 12 12
2 2 2 1 3 2 2 2 2 2 1 1 1 2 2 2 1 3 2 2 1 0 2 4 4 4 3 4 7 13 13 13 14 13 12 12 12 11 12 12 12 13 13
3 4 2 3 1 1 3 1 2 2 2 1 1 2 2 1 2 2 1 3 1 1 0 1 3 4 4 3 4 8 11 12 13 14 13 12 12 12 12 12 12 13 14
3 4 3 2 2 2 2 0 2 3 2 2 1 1 1 1 1 1 1 3 2 1 1 1 1 2 3 3 4 5 7 9 11 12 12 12 12 12 12 13 13 14 14
3 3 3 2 0 1 3 3 2 3 2 3 2 1 1 0 2 1 1 2 2 2 3 1 0 1 2 4 4 5 4 3 3 5 8 8 9 10 11 12 13 14 14
4 5 4 3 2 1 2 2 1 1 2 3 4 3 1 1 1 1 0 1 2 2 3 2 1 1 1 3 5 8 6 4 3 2 3 5 6 8 9 10 12 13 14
5 6 6 4 3 2 2 2 1 0 0 1 2 3 3 3 2 2 2 2 2 0 2 3 3 3 2 4 5 8 7 6 5 3 3 4 5 6 7 8 10 11 12
4 8 6 6 4 4 4 3 2 3 2 1 3 1 2 3 2 2 2 2 3 3 1 3 3 3 2 3 7 7 6 9 8 7 6 5 5 6 6 7 7 8 9
4 8 7 6 6 5 4 4 3 3 3 3 3 4 3 3 2 2 2 1 2 3 3 1 1 2 3 3 9 5 4 9 10 10 9 9 8 8 8 8 8 8 8
3 7 7 6 6 6 5 4 4 4 4 3 3 3 2 3 3 2 2 2 2 2 3 2 2 2 2 2 8 4 4 8 12 13 13 12 12 11 10 10 10 10 10
5 5 6 6 6 6 6 6 6 5 6 5 5 5 5 5 3 3 2 3 3 3 4 4 3 2 2 3 3 3 4 4 7 15 16 16 14 13 13 12 12 12 11
6 6 6 6 7 7 7 7 8 7 6 6 7 6 6 6 6 5 4 4 4 3 4 5 4 3 4 5 5 5 6 7 6 10 15 16 16 15 15 14 14 13 13
7 7 8 8 7 7 7 8 8 8 7 7 7 7 7 7 7 6 6 6 4 5 4 5 5 5 4 5 5 6 7 6 8 9 11 15 17 16 16 16 15 15 15
8 8 7 8 8 8 7 8 8 8 8 8 8 8 8 8 8 8 7 7 6 6 5 5 5 5 5 5 4 5 5 5 7 9 8 9 13 18 18 18 17 17 16
9 8 7 7 7 7 8 9 8 10 9 9 8 8 9 11 12 10 9 7 8 7 6 7 7 6 6 5 5 5 6 5 6 6 5 5 6 8 10 15 18 18 17
6 6 7 7 8 9 10 11 9 8 7 8 8 8 9 11 13 15 16 14 11 9 8 7 7 7 7 6 5 5 5 5 5 4 4 5 5 5 6 7 13 19 20
4 5 5 5 5 6 5 5 7 5 6 6 6 6 9 11 11 10 13 17 17 18 16 11 11 10 8 6 5 6 6 6 6 4 3 5 4 5 5 7 12 15 18
1 2 3 3 4 4 2 3 4 5 7 7 7 7 8 9 11 10 10 10 11 13 15 14 14 14 13 9 8 7 7 7 7 6 6 8 7 6 7 6 10 13 15
2 3 3 3 3 2 2 0 2 3 5 7 8 8 8 9 10 11 10 11 11 10 14 18 18 18 20 19 13 7 7 7 9 8 7 9 8 8 7 7 8 14 16
3 3 4 3 3 2 1 2 2 2 4 5 6 6 8 6 7 8 7 9 11 11 11 12 11 14 15 16 17 13 11 10 10 9 7 8 8 6 7 6 6 6 9
Wind_Direction
60 58 53 26 308 78 139 156 175 163 255 287 289 305 326 18 62 102 137 157 160 165 171 177 181 182 179 177 178 176 175 173 169 168 168 168 167 165 164 163 158 154 149
63 28 341 37 7 57 59 53 128 155 189 188 280 315 319 18 83 101 138 164 170 178 182 184 186 188 186 186 188 185 182 183 180 180 180 179 179 180 179 175 174 169 165
54 1 285 134 45 46 135 175 176 171 182 178 191 227 251 20 48 77 141 157 169 196 195 190 189 191 192 192 195 194 188 188 188 189 189 188 189 190 190 187 185 183 179
31 322 18 56 3 305 180 150 148 121 119 133 156 210 160 146 181 195 202 175 166 189 197 197 191 192 194 197 200 200 197 194 193 196 197 196 196 197 198 197 195 192 189
26 12 59 40 307 312 40 37 70 40 26 44 210 188 190 165 163 224 194 185 169 178 180 191 196 196 198 203 204 205 205 203 200 202 206 206 203 202 203 204 203 201 198
46 354 108 40 330 43 60 62 56 75 332 296 295 139 181 158 164 150 234 208 185 185 181 179 186 202 206 206 205 208 210 210 209 212 213 212 209 206 207 208 209 208 206
81 359 65 110 25 64 47 42 22 245 223 195 288 230 198 183 168 168 174 46 168 170 168 172 181 192 198 207 206 208 213 215 216 218 218 217 216 211 210 211 212 212 211
141 123 43 62 73 98 64 40 40 330 304 114 307 277 188 157 214 153 151 166 88 78 172 176 176 183 200 176 204 208 213 218 222 222 220 220 219 216 215 216 217 217 215
105 59 61 37 3 146 105 25 4 351 352 353 34 356 359 57 160 123 124 100 86 14 8 138 161 172 175 166 180 204 213 220 225 225 223 223 221 219 218 218 219 221 219
156 140 124 74 355 49 98 261 78 349 333 318 125 105 84 45 350 130 190 136 160 143 47 10 85 141 147 134 139 159 200 216 225 229 228 227 224 222 223 223 224 225 223
182 166 147 140 221 63 82 55 59 4 347 357 350 9 68 225 260 252 165 164 197 179 158 147 56 96 135 138 137 134 141 169 205 225 230 231 230 229 229 230 232 233 231
183 183 167 165 203 152 133 117 71 86 30 19 352 344 345 324 320 330 328 220 208 173 158 153 163 210 189 137 133 139 146 149 160 204 236 242 243 241 240 240 240 240 239
181 177 175 169 197 166 163 162 188 39 148 36 327 326 352 346 2 355 346 328 334 217 181 185 188 197 200 132 136 155 167 172 179 192 221 244 252 254 253 252 251 249 248
182 159 163 170 195 192 194 178 224 198 181 211 266 318 321 304 338 335 326 342 327 304 232 204 182 177 177 137 155 176 178 188 196 203 214 229 241 249 254 255 256 254 253
174 154 167 176 190 201 212 185 227 238 171 201 235 213 231 273 248 264 294 302 300 308 313 260 199 181 164 149 163 196 191 197 205 212 218 225 232 239 246 251 254 253 252
198 155 171 181 191 194 200 215 229 222 215 221 243 263 241 277 290 255 241 261 268 272 283 309 280 229 189 206 173 211 228 212 212 218 222 224 226 231 236 241 245 248 249
190 180 183 191 197 199 197 202 229 234 213 220 231 231 224 241 273 296 276 242 236 239 256 272 275 274 197 216 195 219 245 233 222 224 226 224 223 226 230 234 237 240 242
200 195 196 203 208 207 202 203 217 233 227 223 228 233 230 228 221 235 259 269 258 246 246 266 273 275 256 225 217 221 242 255 252 242 228 222 222 224 226 229 233 236 238
205 205 202 207 213 215 207 208 214 225 232 231 229 229 230 233 233 228 228 240 248 251 229 237 249 243 241 233 225 228 236 241 255 262 237 222 223 224 226 229 231 233 235
205 211 210 211 213 217 219 217 217 221 228 233 234 234 232 230 230 230 236 236 241 253 257 252 252 248 243 232 215 218 237 233 242 253 251 225 218 222 227 229 231 233 233
212 210 214 216 218 220 224 221 221 226 225 231 235 236 239 239 236 234 238 233 231 234 240 243 245 245 241 232 223 217 230 234 235 233 240 237 215 216 224 231 235 236 234
218 214 217 222 224 232 233 225 222 236 235 235 239 240 245 246 244 239 239 240 239 241 245 246 249 246 243 236 232 231 234 239 250 238 234 242 230 224 219 216 220 224 227
233 235 236 237 241 251 268 243 229 244 257 260 260 258 262 263 259 247 239 238 240 241 239 244 255 257 259 256 250 246 242 242 246 245 263 263 251 247 240 250 245 228 222
325 291 281 274 269 270 270 241 239 249 265 269 268 267 265 268 272 273 269 259 246 242 238 238 243 250 254 256 255 255 254 257 253 242 234 252 250 248 252 246 247 235 223
345 316 303 297 293 311 24 129 230 274 272 276 275 276 276 274 279 283 279 273 269 260 250 242 233 236 238 242 243 253 250 250 254 246 224 233 239 238 236 235 236 231 222
344 329 326 319 308 314 80 135 189 288 294 298 297 293 288 299 314 319 298 287 278 272 272 272 256 247 244 244 236 233 240 246 251 252 233 232 236 232 242 232 227 225 221